DW8847 Weather Reports


time (UTC)temp
F
wind
direction
speed
knots
gust
knots
rain 1hr
in
rain 24hr
in
rain mn
in
humidity
%
barometer
mb
20260507021031 58 62 0.0 1.7 0.00 0.45 0.00 92 1010.3
20260507020528 58 62 0.0 1.7 0.00 0.45 0.00 92 1010.2
20260507020029 58 62 0.0 1.7 0.00 0.45 0.00 92 1010.3
20260507015527 57 62 0.0 1.7 0.00 0.45 0.00 92 1010.2
20260507015031 57 62 0.0 0.9 0.00 0.45 0.00 91 1010.2
20260507014546 58 62 0.0 0.0 0.00 0.45 0.00 91 1010.3
20260507014031 58 62 0.0 0.9 0.00 0.45 0.00 91 1010.3
20260507013527 58 62 0.0 0.9 0.00 0.45 0.00 92 1010.2
20260507013040 58 62 0.0 0.0 0.00 0.45 0.00 92 1010.2
20260507012528 58 62 0.0 1.7 0.00 0.45 0.00 92 1010.2
20260507012030 58 62 0.0 1.7 0.00 0.45 0.00 92 1010.3
20260507011535 58 62 0.0 1.7 0.00 0.45 0.00 92 1010.2
20260507011025 58 62 0.0 1.7 0.00 0.45 0.00 92 1010.3
20260507010525 58 62 0.0 0.0 0.00 0.45 0.00 92 1010.3
20260507010029 58 62 0.0 0.0 0.00 0.45 0.00 92 1010.4
20260507005524 58 62 0.0 0.0 0.00 0.45 0.00 92 1010.3
20260507005024 58 62 0.0 0.0 0.00 0.45 0.00 92 1010.4
20260507004524 58 62 0.0 0.0 0.00 0.45 0.00 92 1010.3
20260507004025 58 62 0.0 0.0 0.00 0.45 0.00 92 1010.3
20260507003524 58 62 0.0 0.0 0.00 0.45 0.00 92 1010.3
20260507003024 58 62 0.0 0.0 0.00 0.45 0.00 92 1010.4
20260507002523 58 62 0.0 0.0 0.00 0.45 0.00 92 1010.4
20260507002023 58 62 0.0 0.0 0.00 0.45 0.00 92 1010.3
20260507001521 58 62 0.0 0.0 0.00 0.45 0.00 92 1010.3
20260507001022 57 62 0.0 0.0 0.00 0.45 0.00 91 1010.4
20260507000526 57 62 0.0 0.0 0.00 0.45 0.00 91 1010.4
20260507000028 57 62 0.0 0.0 0.00 0.45 0.00 91 1010.4
20260506235522 57 62 0.0 0.0 0.00 0.45 0.00 91 1010.5
20260506235021 57 62 0.0 1.7 0.00 0.45 0.00 91 1010.4
20260506234521 57 62 0.0 1.7 0.00 0.45 0.00 91 1010.4
20260506234022 57 62 0.0 0.0 0.00 0.45 0.00 91 1010.4
20260506233520 57 62 0.0 1.7 0.00 0.45 0.00 90 1010.4
20260506233023 57 62 0.0 1.7 0.00 0.45 0.00 90 1010.5
20260506232522 57 62 0.0 1.7 0.00 0.45 0.00 90 1010.5
20260506232019 57 62 0.0 0.0 0.00 0.45 0.00 90 1010.5
20260506231518 57 62 0.0 0.9 0.00 0.45 0.00 90 1010.6
20260506231018 57 62 0.0 1.7 0.00 0.45 0.00 90 1010.5
20260506230518 57 62 0.0 1.7 0.00 0.45 0.00 90 1010.4
20260506230017 57 62 0.0 2.6 0.00 0.45 0.00 90 1010.5
20260506225521 57 62 0.0 2.6 0.00 0.45 0.00 90 1010.6
20260506225017 57 62 0.0 2.6 0.00 0.45 0.00 90 1010.6
20260506224519 57 62 0.9 2.6 0.00 0.45 0.00 90 1010.6
20260506224016 57 61 0.0 1.7 0.00 0.45 0.00 90 1010.6
20260506223517 58 62 0.0 1.7 0.00 0.45 0.00 90 1010.6
20260506223016 58 61 0.0 1.7 0.00 0.45 0.00 90 1010.5
20260506222517 58 65 0.0 2.6 0.00 0.45 0.00 90 1010.5
20260506222014 58 65 0.9 2.6 0.00 0.45 0.00 90 1010.5
20260506221514 58 65 0.9 2.6 0.00 0.45 0.00 90 1010.5
20260506221016 58 65 0.0 1.7 0.00 0.45 0.00 90 1010.4
20260506220514 58 65 0.0 0.9 0.00 0.45 0.00 90 1010.4
20260506220012 58 65 0.0 1.7 0.00 0.45 0.00 90 1010.4
20260506215517 58 65 0.0 3.5 0.00 0.45 0.45 90 1010.4
20260506215012 58 65 0.9 3.5 0.00 0.45 0.45 90 1010.4
20260506214512 58 74 0.0 1.7 0.00 0.45 0.45 90 1010.5
20260506214011 58 74 0.0 1.7 0.00 0.45 0.45 90 1010.5
20260506213511 58 74 0.0 1.7 0.00 0.45 0.45 90 1010.5
20260506213014 58 74 0.0 1.7 0.00 0.45 0.45 91 1010.5
20260506212512 58 109 0.0 1.7 0.00 0.45 0.45 91 1010.5
20260506212012 58 111 0.0 0.9 0.00 0.45 0.45 91 1010.5
20260506211510 58 111 0.0 1.7 0.00 0.45 0.45 91 1010.5
20260506211011 59 111 0.0 1.7 0.00 0.45 0.45 91 1010.6
20260506210511 59 111 0.0 1.7 0.00 0.45 0.45 91 1010.6
20260506210014 59 69 0.0 0.9 0.00 0.45 0.45 91 1010.6
20260506205511 59 69 0.0 1.7 0.00 0.46 0.45 91 1010.6
20260506205010 59 69 0.0 2.6 0.00 0.46 0.45 91 1010.6
20260506204510 59 72 0.0 2.6 0.00 0.46 0.45 91 1010.6
20260506204010 59 192 0.0 1.7 0.00 0.46 0.45 91 1010.6
20260506203510 59 196 0.0 1.7 0.00 0.46 0.45 91 1010.6
20260506203010 59 196 0.0 0.0 0.00 0.46 0.45 91 1010.5
20260506202510 59 196 0.0 0.0 0.00 0.46 0.45 91 1010.5
20260506202013 60 196 0.0 0.0 0.00 0.46 0.45 91 1010.4
20260506201509 60 196 0.0 1.7 0.00 0.46 0.45 91 1010.4
20260506201010 60 196 0.0 1.7 0.00 0.46 0.45 91 1010.4
20260506200509 60 196 0.0 1.7 0.00 0.46 0.45 91 1010.3
20260506200009 60 196 0.0 1.7 0.00 0.46 0.45 91 1010.4
20260506195509 60 196 0.0 0.0 0.00 0.51 0.45 91 1010.3
20260506195009 60 196 0.0 0.0 0.00 0.51 0.45 91 1010.3
20260506194511 60 196 0.0 0.0 0.00 0.51 0.45 91 1010.2
20260506194009 60 196 0.0 0.0 0.00 0.51 0.45 91 1010.1
20260506193509 60 196 0.0 0.0 0.00 0.51 0.45 91 1010.0
20260506193008 60 196 0.0 0.9 0.00 0.51 0.45 91 1010.0
20260506192509 60 196 0.0 0.9 0.00 0.51 0.45 91 1009.9
20260506192008 60 196 0.0 1.7 0.00 0.51 0.45 91 1009.9
20260506191508 60 196 0.0 1.7 0.00 0.51 0.45 91 1009.9
20260506191008 61 196 0.0 2.6 0.00 0.51 0.45 91 1009.8
20260506190509 61 196 0.0 2.6 0.00 0.51 0.45 91 1009.7
20260506190008 60 196 0.0 2.6 0.00 0.51 0.45 91 1009.6
20260506185508 60 182 0.0 1.7 0.00 0.53 0.45 91 1009.5
20260506185007 61 180 0.0 1.7 0.00 0.53 0.45 91 1009.5
20260506184507 61 180 0.0 1.7 0.00 0.53 0.45 91 1009.4
20260506184007 60 180 0.0 1.7 0.00 0.53 0.45 91 1009.5
20260506183507 61 167 0.0 1.7 0.00 0.53 0.45 91 1009.5
20260506183007 61 167 0.0 1.7 0.00 0.53 0.45 91 1009.5
20260506182507 60 167 0.0 0.0 0.00 0.53 0.45 91 1009.5
20260506182010 60 167 0.0 0.0 0.00 0.53 0.45 91 1009.4
20260506181506 60 167 0.0 0.0 0.00 0.53 0.45 90 1009.4
20260506181007 60 167 0.0 0.0 0.00 0.53 0.45 90 1009.4
20260506180510 60 167 0.0 0.0 0.00 0.53 0.45 90 1009.4
20260506180006 60 167 0.0 0.0 0.00 0.53 0.45 90 1009.5
20260506175507 60 167 0.0 0.0 0.00 0.54 0.45 90 1009.5
20260506175006 60 167 0.0 0.0 0.00 0.54 0.45 90 1009.5
20260506174505 60 167 0.0 1.7 0.00 0.54 0.45 90 1009.4
20260506174008 60 167 0.0 1.7 0.00 0.54 0.45 90 1009.5
20260506173506 60 167 0.0 1.7 0.00 0.54 0.45 90 1009.4
20260506173005 60 167 0.0 1.7 0.00 0.54 0.45 90 1009.4
20260506172505 60 167 0.0 1.7 0.00 0.54 0.45 90 1009.4
20260506172007 60 167 0.0 1.7 0.00 0.54 0.45 90 1009.3
20260506171505 60 167 0.0 1.7 0.00 0.54 0.45 90 1009.2
20260506171007 60 167 0.0 2.6 0.00 0.54 0.45 90 1009.1
20260506170504 60 167 0.0 2.6 0.01 0.54 0.45 90 1009.0
20260506170006 60 215 0.0 2.6 0.02 0.54 0.45 90 1009.1
20260506165504 60 215 0.0 2.6 0.02 0.57 0.45 90 1009.2
20260506165004 60 215 0.0 2.6 0.02 0.57 0.45 90 1009.2
20260506164504 60 215 0.0 3.5 0.03 0.57 0.45 89 1009.2
20260506164004 60 215 0.9 3.5 0.05 0.57 0.45 89 1009.2
20260506163503 60 240 0.0 1.7 0.06 0.57 0.45 89 1009.2
20260506163010 60 267 0.0 2.6 0.07 0.57 0.45 89 1009.3
20260506162503 60 200 0.9 3.5 0.09 0.57 0.45 89 1009.3
20260506162007 60 219 0.0 3.5 0.12 0.57 0.45 89 1009.2
20260506161507 60 180 1.7 5.2 0.15 0.57 0.45 89 1009.2
20260506161003 60 189 0.9 7.0 0.17 0.57 0.45 89 1009.2
20260506160502 60 179 1.7 8.7 0.18 0.56 0.44 88 1009.1
20260506160005 60 218 2.6 8.7 0.19 0.56 0.43 88 1009.2
20260506155504 60 232 3.5 9.6 0.20 0.61 0.43 89 1009.1
20260506155002 60 252 3.5 9.6 0.20 0.61 0.43 89 1009.2
20260506154502 60 163 1.7 7.8 0.20 0.60 0.42 89 1009.1
20260506154002 60 173 2.6 8.7 0.18 0.57 0.40 88 1009.0
20260506153502 61 204 3.5 8.7 0.17 0.56 0.39 89 1009.2
20260506153001 61 184 0.0 3.5 0.16 0.56 0.38 89 1009.1
20260506152501 61 192 0.9 3.5 0.13 0.54 0.35 89 1009.1
20260506152004 61 199 0.0 4.3 0.10 0.50 0.32 88 1009.2
20260506151600 61 213 0.9 4.3 0.08 0.48 0.30 88 1009.3
20260506151100 61 188 0.9 4.3 0.06 0.46 0.28 88 1009.3
20260506150600 62 183 0.9 5.2 0.04 0.44 0.26 87 1009.3
20260506150105 62 223 1.7 6.1 0.02 0.43 0.24 86 1009.3
20260506145602 62 232 0.9 6.1 0.01 0.46 0.23 86 1009.3
20260506145059 62 209 0.9 5.2 0.00 0.46 0.22 86 1009.2
20260506144601 62 230 0.9 3.5 0.00 0.46 0.22 85 1009.1
20260506144100 63 219 0.0 3.5 0.00 0.46 0.22 85 1009.2
20260506143600 63 156 0.9 3.5 0.00 0.46 0.22 86 1009.2
20260506143059 63 237 0.0 2.6 0.00 0.46 0.22 85 1009.2
20260506142558 63 142 0.0 3.5 0.00 0.46 0.22 85 1009.3
20260506142057 63 167 0.0 3.5 0.00 0.46 0.22 85 1009.4
20260506141557 63 83 0.9 5.2 0.00 0.46 0.22 85 1009.4
20260506141056 63 65 0.0 5.2 0.01 0.46 0.22 85 1009.6
20260506140559 63 46 1.7 5.2 0.02 0.46 0.22 84 1009.6
20260506140056 63 311 0.0 2.6 0.03 0.46 0.22 86 1009.6
20260506135554 62 209 0.0 7.0 0.09 0.52 0.22 85 1009.7
20260506135055 62 200 1.7 7.0 0.12 0.52 0.22 85 1009.8
20260506134616 62 202 1.7 7.0 0.12 0.52 0.22 85 1009.8
20260506134057 62 190 1.7 7.0 0.12 0.52 0.22 86 1009.8
20260506133555 62 181 1.7 6.1 0.12 0.52 0.22 87 1009.8
20260506133053 62 196 1.7 5.2 0.12 0.52 0.22 88 1009.8
20260506132552 61 327 1.7 6.1 0.12 0.52 0.22 88 1009.8
20260506132051 61 226 0.9 5.2 0.12 0.52 0.22 88 1010.0
20260506131503 61 225 1.7 5.2 0.12 0.52 0.22 88 1010.0
20260506131003 61 244 1.7 8.7 0.12 0.52 0.22 88 1010.1
20260506130502 61 206 2.6 7.8 0.11 0.51 0.21 87 1010.1
20260506130002 61 200 3.5 7.8 0.09 0.50 0.20 86 1010.2
20260506125502 62 214 1.7 5.2 0.06 0.47 0.16 85 1010.2
20260506125001 63 203 2.6 4.3 0.01 0.43 0.11 84 1010.1
20260506124501 63 255 2.6 5.2 0.00 0.42 0.10 84 1010.0
20260506124002 63 234 1.7 7.8 0.00 0.42 0.10 84 1010.0
20260506123603 63 225 2.6 7.8 0.00 0.42 0.10 83 1010.1
20260506123100 63 242 2.6 5.2 0.01 0.42 0.10 84 1010.1
20260506122600 63 218 1.7 7.8 0.01 0.42 0.10 85 1010.1
20260506122100 63 205 2.6 7.8 0.01 0.42 0.10 84 1010.0
20260506121608 63 194 1.7 6.1 0.01 0.42 0.10 86 1010.0
20260506121058 62 201 1.7 6.1 0.02 0.42 0.10 86 1010.0
20260506120558 62 217 1.7 7.0 0.02 0.42 0.10 86 1010.0
20260506115557 62 211 1.7 7.0 0.02 0.43 0.10 87 1010.0
20260506115055 62 208 1.7 7.0 0.02 0.43 0.10 87 1010.1
20260506114556 62 200 2.6 7.0 0.02 0.43 0.10 87 1010.2
20260506114055 62 227 1.7 6.1 0.02 0.43 0.10 88 1010.1
20260506113555 62 178 2.6 6.1 0.02 0.43 0.10 88 1010.1
20260506113055 62 199 1.7 7.0 0.02 0.42 0.09 88 1010.1
20260506112555 62 208 1.7 5.2 0.02 0.42 0.09 88 1010.1
20260506112055 62 206 1.7 6.1 0.02 0.42 0.09 88 1010.1
20260506111611 62 236 1.7 7.0 0.01 0.41 0.09 88 1010.1
20260506111054 61 177 2.6 7.0 0.01 0.41 0.09 88 1010.1
20260506110554 62 195 1.7 6.1 0.02 0.41 0.09 88 1010.1
20260506110054 62 198 0.9 7.0 0.02 0.41 0.09 88 1010.2
20260506105553 62 208 1.7 7.0 0.02 0.42 0.09 87 1010.2
20260506105053 62 209 1.7 8.7 0.03 0.42 0.09 87 1010.3
20260506104553 62 205 1.7 8.7 0.03 0.42 0.09 88 1010.3
20260506104055 62 233 1.7 6.1 0.04 0.42 0.09 88 1010.3
20260506103551 62 205 0.9 5.2 0.03 0.41 0.08 88 1010.4
20260506103051 62 194 1.7 5.2 0.04 0.41 0.08 88 1010.4
20260506102551 62 142 0.0 4.3 0.05 0.41 0.08 88 1010.3
20260506102053 62 205 1.7 4.3 0.05 0.41 0.08 88 1010.4
20260506101550 62 217 0.0 2.6 0.06 0.41 0.08 88 1010.5
20260506101049 61 200 0.0 5.2 0.06 0.41 0.08 88 1010.6
20260506100549 61 256 0.9 5.2 0.05 0.40 0.07 89 1010.6
20260506100049 61 230 0.0 5.2 0.04 0.39 0.06 88 1010.8
20260506095548 61 205 0.0 5.2 0.04 0.39 0.06 88 1010.8
20260506095049 61 52 0.0 2.6 0.03 0.39 0.06 88 1010.8
20260506094549 61 82 0.0 4.3 0.03 0.39 0.06 88 1010.8
20260506094049 61 140 0.0 4.3 0.02 0.38 0.05 88 1010.8
20260506093552 61 26 0.0 2.6 0.02 0.37 0.04 87 1010.8
20260506093053 61 175 0.0 3.5 0.02 0.37 0.04 87 1010.8
20260506092550 61 155 0.0 3.5 0.01 0.36 0.03 87 1010.8
20260506092051 61 209 0.0 3.5 0.01 0.36 0.03 87 1010.7
20260506091548 61 217 0.0 4.3 0.00 0.35 0.02 86 1010.7
20260506091046 61 192 0.9 4.3 0.00 0.35 0.02 87 1010.7
20260506090548 61 178 0.0 2.6 0.00 0.35 0.02 88 1010.7
20260506090045 61 159 0.0 1.7 0.00 0.35 0.02 89 1010.6
20260506085544 61 75 0.0 4.3 0.00 0.35 0.02 89 1010.6
20260506085043 61 35 0.9 4.3 0.00 0.35 0.02 89 1010.6
20260506084543 61 92 0.0 3.5 0.00 0.35 0.02 89 1010.5
20260506084043 60 74 0.0 3.5 0.00 0.35 0.02 89 1010.5
20260506083543 60 69 0.0 3.5 0.00 0.35 0.02 88 1010.5
20260506083055 60 105 0.0 2.6 0.01 0.35 0.02 89 1010.5
20260506082541 60 138 0.0 2.6 0.01 0.35 0.02 89 1010.4
20260506082041 60 193 0.0 2.6 0.01 0.35 0.02 90 1010.4
20260506081547 60 80 0.0 3.5 0.01 0.35 0.02 91 1010.4
20260506081039 60 83 0.9 3.5 0.01 0.35 0.02 90 1010.3
20260506080540 60 88 0.9 3.5 0.01 0.35 0.02 90 1010.3
20260506073034 59 76 1.7 5.2 0.00 0.35 0.02 90 1010.5
20260506072532 59 28 1.7 5.2 0.00 0.35 0.02 90 1010.6
20260506072033 59 63 2.6 5.2 0.00 0.35 0.02 90 1010.6
20260506071534 59 80 1.7 5.2 0.00 0.35 0.02 90 1010.6
20260506071031 59 36 1.7 3.5 0.01 0.35 0.02 90 1010.6
20260506070531 59 55 1.7 4.3 0.01 0.35 0.02 90 1010.6
20260506062026 58 49 0.9 3.5 0.02 0.35 0.02 90 1010.7
20260506061535 58 46 1.7 2.6 0.02 0.35 0.02 90 1010.6
20260506061026 58 42 0.0 2.6 0.01 0.34 0.01 90 1010.6
20260506060526 58 42 0.9 2.6 0.01 0.34 0.01 90 1010.7
20260506051024 57 19 0.0 3.5 0.00 0.33 0.00 91 1010.7
20260506050519 57 19 0.9 3.5 0.00 0.33 0.00 91 1010.6
20260506045019 57 17 0.9 2.6 0.00 0.33 0.00 91 1010.7
20260506044520 57 19 1.7 2.6 0.00 0.33 0.00 91 1010.7
20260506044022 57 16 0.9 2.6 0.00 0.33 0.00 91 1010.7
20260506043517 57 42 0.0 2.6 0.00 0.33 0.00 91 1010.6
20260506043017 57 25 0.0 1.7 0.00 0.33 0.00 91 1010.6
20260506042517 57 22 0.0 1.7 0.00 0.33 0.00 91 1010.7
20260506042017 56 22 0.0 1.7 0.00 0.33 0.00 91 1010.7
20260506041516 56 22 0.0 2.6 0.00 0.33 0.00 91 1010.7
20260506041014 56 22 0.9 2.6 0.00 0.33 0.00 91 1010.6
20260506040519 56 32 0.9 1.7 0.00 0.33 0.00 91 1010.6
20260506040016 56 60 0.0 1.7 0.00 0.33 0.00 91 1010.7
20260506035512 56 60 0.0 1.7 0.00 0.33 0.00 91 1010.9
20260506035012 56 60 0.0 1.7 0.00 0.33 0.00 91 1011.0
20260506034511 56 60 0.0 1.7 0.00 0.33 0.00 91 1011.0
20260506034011 56 60 0.0 1.7 0.00 0.33 0.00 91 1010.9
20260506033510 56 60 0.0 1.7 0.00 0.33 0.00 91 1010.9
20260506033015 56 60 0.0 1.7 0.00 0.33 0.00 91 1011.0
20260506032510 56 60 0.0 1.7 0.00 0.33 0.00 91 1011.0
20260506032010 56 60 0.0 1.7 0.00 0.33 0.00 91 1011.0
20260506031510 57 60 0.0 1.7 0.00 0.33 0.00 91 1011.1
20260506031009 57 60 0.0 1.7 0.00 0.33 0.00 91 1011.1
20260506030507 57 61 0.0 2.6 0.00 0.33 0.00 91 1011.2
20260506030007 57 65 0.9 2.6 0.00 0.33 0.00 91 1011.2
20260506025509 57 38 0.0 2.6 0.00 0.33 0.00 91 1011.2
20260506025007 57 38 0.0 2.6 0.00 0.33 0.00 91 1011.2
20260506024520 57 35 0.0 2.6 0.00 0.33 0.00 91 1011.3
20260506024006 57 24 0.0 1.7 0.00 0.33 0.00 91 1011.3
20260506023506 57 24 0.0 1.7 0.00 0.33 0.00 91 1011.3
20260506023006 56 24 0.0 1.7 0.00 0.33 0.00 91 1011.5
20260506022505 56 24 0.0 1.7 0.00 0.33 0.00 91 1011.5
20260506022008 56 24 0.0 1.7 0.00 0.33 0.00 91 1011.5
20260506021509 56 24 0.0 1.7 0.00 0.33 0.00 91 1011.5